FW7254 Weather Reports


Display with metric or nautical units.
time (UTC)temp
F
wind
direction
speed
MPH
gust
MPH
rain 1hr
in
rain 24hr
in
rain mn
in
humidity
%
barometer
mb
20260905020330 69 21 0.0 0.0 0.00 0.00 0.69 93 1012.6
20260905014838 69 21 0.0 0.0 0.00 0.00 0.69 93 1012.7
20260905013323 69 22 0.0 0.0 0.00 0.00 0.69 93 1012.8
20260905011848 69 22 0.0 0.0 0.00 0.00 0.69 93 1012.9
20260905010325 69 22 0.0 0.0 0.00 0.00 0.69 93 1012.8
20260905004832 69 22 0.0 0.0 0.00 0.00 0.69 93 1012.8
20260905003318 69 21 0.0 0.0 0.00 0.00 0.69 93 1012.8
20260905001827 69 21 0.0 0.0 0.00 0.00 0.69 93 1012.5
20260905000325 69 21 0.0 0.0 0.00 0.00 0.69 93 1012.4
20260904234817 69 22 0.0 0.0 0.00 0.00 0.69 93 1012.2
20260904233322 69 22 0.0 0.0 0.00 0.00 0.69 93 1012.1
20260904231822 69 22 0.0 0.0 0.00 0.00 0.69 93 1011.9
20260904230328 69 22 0.0 0.0 0.00 0.00 0.69 93 1011.8
20260904224816 69 22 0.0 0.0 0.00 0.00 0.69 93 1011.9
20260904223315 69 22 0.0 0.0 0.00 0.00 0.69 93 1011.8
20260904221823 69 22 0.0 0.0 0.00 0.00 0.69 93 1011.6
20260904220326 69 21 0.0 0.0 0.00 0.00 0.67 93 1011.5
20260904214841 69 22 0.0 0.0 0.00 0.00 0.67 93 1011.5
20260904213317 69 22 0.0 0.0 0.00 0.00 0.67 93 1011.4
20260904211822 69 22 0.0 0.0 0.00 0.00 0.66 93 1011.2
20260904210328 69 22 0.0 0.0 0.00 0.00 0.66 93 1011.3
20260904204835 69 22 0.0 0.0 0.00 0.00 0.65 93 1011.4
20260904203313 69 22 0.0 0.0 0.00 0.00 0.63 93 1011.2
20260904201826 69 22 0.0 0.0 0.00 0.00 0.60 93 1011.1
20260904200315 69 22 0.0 0.0 0.00 0.00 0.55 93 1011.1
20260904194814 69 22 0.0 0.0 0.00 0.00 0.54 93 1010.6
20260904193322 69 22 0.0 0.0 0.00 0.00 0.52 93 1010.4
20260904191829 69 23 0.0 0.0 0.00 0.00 0.51 93 1010.2
20260904190313 69 21 0.0 0.0 0.00 0.00 0.48 93 1010.6
20260904184822 69 22 0.0 0.0 0.00 0.00 0.45 93 1011.0
20260904183328 69 22 0.0 0.0 0.00 0.00 0.39 93 1010.7
20260904181833 69 22 0.0 0.0 0.00 0.00 0.35 93 1010.9
20260904180320 69 22 0.0 0.0 0.00 0.00 0.30 93 1011.1
20260904174821 69 22 0.0 0.0 0.00 0.00 0.28 93 1010.7
20260904173326 69 22 0.0 0.0 0.00 0.00 0.25 92 1010.8
20260904171815 69 23 0.0 0.0 0.00 0.00 0.24 92 1010.4
20260904170314 69 22 0.0 0.0 0.00 0.00 0.21 92 1010.8
20260904164822 69 22 0.0 0.0 0.00 0.00 0.17 92 1011.5
20260904163328 69 22 0.0 0.0 0.00 0.00 0.12 92 1012.1
20260904161834 69 22 0.0 0.0 0.00 0.00 0.07 92 1011.2
20260904160320 69 22 0.0 0.0 0.00 0.00 0.06 92 1010.8
20260904154820 69 21 0.0 0.0 0.00 0.00 0.04 92 1011.1
20260904153327 70 22 0.0 0.0 0.00 0.00 0.03 92 1010.8
20260904151813 70 23 0.0 0.0 0.00 0.00 0.01 92 1011.1
20260904150312 70 22 0.0 0.0 0.00 0.00 0.39 92 1010.9
20260904144820 70 22 0.0 0.0 0.00 0.00 0.39 92 1010.9
20260904143347 70 22 0.0 0.0 0.00 0.00 0.38 92 1010.7
20260904141813 70 22 0.0 0.0 0.00 0.00 0.35 92 1010.8
20260904140316 70 22 0.0 0.0 0.00 0.00 0.31 92 1011.6
20260904134821 71 22 0.0 0.0 0.00 0.00 0.30 92 1011.8
20260904133327 71 22 0.0 0.0 0.00 0.00 0.28 92 1012.0
20260904131813 71 21 0.0 0.0 0.00 0.00 0.26 91 1012.4
20260904130322 71 22 0.0 0.0 0.00 0.00 0.24 91 1012.1
20260904124827 71 21 0.0 0.0 0.00 0.00 0.21 91 1012.1
20260904123328 71 22 0.0 0.0 0.00 0.00 0.20 91 1012.4
20260904121813 72 22 0.0 0.0 0.00 0.00 0.19 91 1011.9
20260904120311 72 23 0.0 0.0 0.00 0.00 0.16 91 1012.3
20260904114824 72 22 0.0 0.0 0.00 0.00 0.15 91 1011.7
20260904113328 72 21 0.0 0.0 0.00 0.00 0.14 91 1011.8
20260904111813 73 22 0.0 0.0 0.00 0.00 0.13 91 1012.2
20260904110339 73 22 0.0 0.0 0.00 0.00 0.11 91 1012.1
20260904104825 73 21 0.0 0.0 0.00 0.00 0.10 91 1011.7
20260904103324 73 21 0.0 0.0 0.00 0.00 0.09 91 1011.5
20260904101834 74 22 0.0 0.0 0.00 0.00 0.08 91 1011.0
20260904100317 74 22 0.0 0.0 0.00 0.00 0.07 90 1011.0
20260904094826 74 21 0.0 0.0 0.00 0.00 0.06 90 1011.2
20260904093331 74 22 0.0 0.0 0.00 0.00 0.05 89 1010.5
20260904091832 74 22 0.0 0.0 0.00 0.00 0.04 89 1009.9
20260904090319 74 22 0.0 0.0 0.00 0.00 0.03 89 1009.8
20260904084825 74 21 0.0 0.0 0.00 0.00 0.03 88 1010.0
20260904083349 75 21 0.0 0.0 0.00 0.00 0.03 89 1010.0
20260904081814 75 22 0.0 0.0 0.00 0.00 0.03 89 1009.5
20260904080320 75 22 0.0 0.0 0.00 0.00 0.02 88 1010.2
20260904074827 75 22 0.0 0.0 0.00 0.00 0.02 88 1010.2
20260904073351 76 22 0.0 0.0 0.00 0.00 0.02 88 1009.6
20260904071830 76 22 0.0 0.0 0.00 0.00 0.02 88 1009.9
20260904070314 76 22 0.0 0.0 0.00 0.00 0.02 87 1009.9
20260904064821 76 22 0.0 0.0 0.00 0.00 0.01 86 1010.1
20260904063319 76 21 0.0 0.0 0.00 0.00 0.01 86 1010.4
20260904061826 76 22 0.0 0.0 0.00 0.00 0.00 86 1010.2
20260904060349 76 22 0.0 0.0 0.00 0.00 0.00 85 1009.8
20260904054840 77 22 0.0 0.0 0.00 0.00 0.00 85 1009.5
20260904053337 76 22 0.0 0.0 0.00 0.00 0.00 85 1010.0
20260904051851 77 22 0.0 0.0 0.00 0.00 0.00 86 1009.9
20260904050328 77 22 0.0 0.0 0.00 0.00 0.00 86 1010.0
20260904044814 77 21 0.0 0.0 0.00 0.00 0.00 86 1010.0
20260904043323 77 21 0.0 0.0 0.00 0.00 0.00 85 1009.5
20260904041831 77 21 0.0 0.0 0.00 0.00 0.00 85 1009.2
20260904040335 77 22 0.0 0.0 0.00 0.00 0.00 84 1009.4
20260904034834 77 21 0.0 0.0 0.00 0.00 0.00 84 1009.7
20260904033318 77 22 0.0 0.0 0.00 0.00 0.00 84 1009.8
20260904031814 77 22 0.0 0.0 0.00 0.00 0.00 84 1010.1
20260904030318 77 21 0.0 0.0 0.00 0.00 0.00 84 1010.3
20260904024831 77 22 0.0 0.0 0.00 0.00 0.00 85 1009.9
20260904023330 76 22 0.0 0.0 0.00 0.00 0.00 86 1009.9
20260904021816 75 22 0.0 0.0 0.00 0.00 0.00 87 1010.1